{"data":{"norad_id":57716,"epoch":"2026-05-25T03:48:22.894848Z","epoch_age_seconds":71741,"freshness":"FRESH","line1":"1 57716U 23129U   26145.15859832  .00003621  00000+0  14108-3 0  9990","line2":"2 57716  43.0027  46.3710 0001389 280.1684  79.9011 15.27575035152235","mean_motion":15.27575035,"eccentricity":0.0001389,"inclination_deg":43.0027,"raan_deg":46.371,"arg_perigee_deg":280.1684,"mean_anomaly_deg":79.9011,"bstar":0.00014108,"rev_number":15223,"period_min":94.267055104105,"perigee_km":482.1109422623,"apogee_km":484.01698388984,"semimajor_km":6861.2009630761,"source":"CELESTRAK","updated_at":"2026-05-25T13:38:18.374515Z"}}